TimeCDT,TemperatureF,Dew PointF,Humidity,Sea Level PressureIn,VisibilityMPH,Wind Direction,Wind SpeedMPH,Gust SpeedMPH,PrecipitationIn,Events,Conditions,WindDirDegrees,DateUTC
12:52 AM,51.1,48.0,89,29.86,8.0,South,4.6,-,N/A,,Partly Cloudy,190,2013-04-29 05:52:00
1:52 AM,51.1,48.0,89,29.85,8.0,SSW,5.8,-,N/A,,Partly Cloudy,200,2013-04-29 06:52:00
2:52 AM,50.0,48.9,96,29.84,5.0,SSW,3.5,-,N/A,,Partly Cloudy,200,2013-04-29 07:52:00
3:52 AM,50.0,48.0,93,29.84,5.0,Calm,Calm,-,N/A,,Partly Cloudy,0,2013-04-29 08:52:00
4:52 AM,51.1,48.0,89,29.85,5.0,SW,3.5,-,N/A,,Scattered Clouds,220,2013-04-29 09:52:00
5:52 AM,53.1,50.0,89,29.87,6.0,WSW,5.8,-,N/A,,Scattered Clouds,250,2013-04-29 10:52:00
6:52 AM,54.0,50.0,86,29.88,6.0,SW,4.6,-,N/A,,Scattered Clouds,230,2013-04-29 11:52:00
7:52 AM,57.0,51.1,81,29.88,8.0,SW,6.9,-,N/A,,Mostly Cloudy,230,2013-04-29 12:52:00
8:52 AM,60.1,52.0,75,29.87,8.0,WSW,5.8,-,N/A,,Mostly Cloudy,240,2013-04-29 13:52:00
9:52 AM,63.0,53.1,70,29.86,10.0,SW,8.1,-,N/A,,Mostly Cloudy,220,2013-04-29 14:52:00
10:52 AM,66.0,54.0,65,29.86,10.0,SW,12.7,-,N/A,,Mostly Cloudy,230,2013-04-29 15:52:00
11:52 AM,69.1,52.0,54,29.84,10.0,SW,13.8,-,N/A,,Mostly Cloudy,220,2013-04-29 16:52:00
12:52 PM,71.1,50.0,47,29.83,10.0,SW,13.8,18.4,N/A,,Mostly Cloudy,230,2013-04-29 17:52:00
1:52 PM,71.1,48.9,45,29.83,10.0,South,16.1,20.7,N/A,,Mostly Cloudy,190,2013-04-29 18:52:00
2:52 PM,66.9,51.1,57,29.81,10.0,SSE,12.7,-,0.00,,Overcast,150,2013-04-29 19:52:00
3:52 PM,64.0,53.1,67,29.78,9.0,SSE,11.5,-,0.02,Rain,Light Rain,160,2013-04-29 20:52:00
4:52 PM,66.0,52.0,60,29.79,10.0,South,9.2,-,0.00,,Mostly Cloudy,190,2013-04-29 21:52:00
5:52 PM,66.0,52.0,60,29.78,10.0,SSE,10.4,-,0.00,,Mostly Cloudy,160,2013-04-29 22:52:00
6:52 PM,63.0,50.0,63,29.77,10.0,SSE,11.5,-,N/A,,Mostly Cloudy,150,2013-04-29 23:52:00
7:52 PM,63.0,48.9,60,29.78,10.0,SSE,13.8,-,N/A,,Mostly Cloudy,160,2013-04-30 00:52:00
8:52 PM,60.1,48.9,67,29.79,10.0,SE,8.1,-,N/A,,Mostly Cloudy,140,2013-04-30 01:52:00
9:52 PM,60.1,48.9,67,29.79,10.0,SE,6.9,-,N/A,,Mostly Cloudy,140,2013-04-30 02:52:00
10:52 PM,60.1,50.0,69,29.78,10.0,SSE,5.8,-,N/A,,Mostly Cloudy,150,2013-04-30 03:52:00
11:52 PM,54.0,48.0,80,29.77,10.0,SE,10.4,-,N/A,,Scattered Clouds,140,2013-04-30 04:52:00